Location: Αθήνα
(37.9839°N, 23.7283°E)
Time: 23:05:37
(UTC+03:00)

EO-79 - Pass Details

Date: 19 June 2024
Orbit: 555 x 577 km, 98.0° (Epoch: 18 July)

Event Time Altitude Azimuth Distance (km) Brightness Sun altitude
Rises 03:55:59 0° 26° (NNE) 2,750 ? -19.3°
Reaches altitude 10° 03:58:27 10° 41° (NE) 1,847 ? -19.0°
Maximum altitude 04:01:44 24° 96° (E) 1,167 ? -18.6°
Enters shadow 04:04:46 11° 150° (SSE) 1,757 ? -18.2°
